KINEIS-4D

Last updated on Mon Sep 21 2026 00:02:54 GMT+0000 (Coordinated Universal Time)

1 63302U 25056C 26263.54786411 .00000935 00000+0 15536-3 0 9996 2 63302 97.9118 25.0534 0003275 54.4322 305.7190 14.72364365 81169
UTC large
Height (km)
Speed (km/s)
/
Latitude / Longitude
Inclination (degrees)
Orbital Period (minutes)
Azimuth
Elevation
Range (km)
Doppler Factor

Next 0 passes for location: London (51.5072 / 0.1276)

No passes found over London.
KINEIS-4D